TimeCDT,TemperatureF,Dew PointF,Humidity,Sea Level PressureIn,VisibilityMPH,Wind Direction,Wind SpeedMPH,Gust SpeedMPH,PrecipitationIn,Events,Conditions,WindDirDegrees,DateUTC
12:12 AM,44.6,33.8,66,29.99,10.0,SE,16.1,-,N/A,,Scattered Clouds,130,2013-04-26 05:12:00
12:33 AM,44.6,33.8,66,29.98,10.0,SE,13.8,-,N/A,,Scattered Clouds,130,2013-04-26 05:33:00
12:53 AM,44.6,33.8,66,29.97,10.0,SE,12.7,17.3,N/A,,Clear,130,2013-04-26 05:53:00
1:13 AM,44.6,33.8,66,29.96,10.0,SE,10.4,-,N/A,,Clear,140,2013-04-26 06:13:00
1:32 AM,46.4,33.8,62,29.96,10.0,SSE,11.5,18.4,N/A,,Scattered Clouds,150,2013-04-26 06:32:00
1:53 AM,48.2,35.6,62,29.95,10.0,SSE,11.5,19.6,N/A,,Mostly Cloudy,150,2013-04-26 06:53:00
2:13 AM,46.4,35.6,66,29.94,10.0,SSE,10.4,17.3,N/A,,Mostly Cloudy,150,2013-04-26 07:13:00
2:32 AM,46.4,35.6,66,29.93,10.0,SSE,9.2,17.3,N/A,,Mostly Cloudy,150,2013-04-26 07:32:00
2:53 AM,46.4,35.6,66,29.93,10.0,SSE,5.8,-,N/A,,Mostly Cloudy,150,2013-04-26 07:53:00
3:13 AM,46.4,35.6,66,29.94,10.0,SE,3.5,-,N/A,,Scattered Clouds,140,2013-04-26 08:13:00
3:32 AM,46.4,37.4,71,29.95,10.0,Calm,Calm,-,N/A,,Mostly Cloudy,0,2013-04-26 08:32:00
3:53 AM,46.4,37.4,71,29.95,10.0,Calm,Calm,-,N/A,,Unknown,0,2013-04-26 08:53:00
4:13 AM,46.4,37.4,71,29.94,10.0,Calm,Calm,-,N/A,,Unknown,0,2013-04-26 09:13:00
4:33 AM,44.6,37.4,76,29.93,10.0,SSE,4.6,-,N/A,,Unknown,150,2013-04-26 09:33:00
4:53 AM,44.6,37.4,76,29.92,10.0,SSE,5.8,-,N/A,,Clear,150,2013-04-26 09:53:00
5:13 AM,44.6,37.4,76,29.92,10.0,SSE,4.6,-,N/A,,Clear,150,2013-04-26 10:13:00
5:33 AM,44.6,37.4,76,29.92,10.0,SSE,4.6,-,N/A,,Clear,150,2013-04-26 10:33:00
5:53 AM,42.8,37.4,81,29.92,10.0,SSE,4.6,-,N/A,,Clear,150,2013-04-26 10:53:00
6:13 AM,42.8,37.4,81,29.93,10.0,SSE,4.6,-,N/A,,Clear,160,2013-04-26 11:13:00
6:33 AM,42.8,37.4,81,29.93,10.0,Calm,Calm,-,N/A,,Clear,0,2013-04-26 11:33:00
6:53 AM,42.8,37.4,81,29.94,10.0,Calm,Calm,-,N/A,,Clear,0,2013-04-26 11:53:00
7:12 AM,42.8,39.2,87,29.94,10.0,Calm,Calm,-,N/A,,Clear,0,2013-04-26 12:12:00
7:33 AM,46.4,39.2,76,29.94,10.0,South,3.5,-,N/A,,Clear,170,2013-04-26 12:33:00
7:53 AM,46.4,41.0,81,29.95,10.0,Calm,Calm,-,N/A,,Clear,0,2013-04-26 12:53:00
8:13 AM,48.2,41.0,76,29.95,10.0,South,4.6,-,N/A,,Clear,190,2013-04-26 13:13:00
8:33 AM,50.0,41.0,71,29.95,10.0,SW,8.1,-,N/A,,Clear,220,2013-04-26 13:33:00
8:52 AM,51.8,41.0,67,29.96,10.0,SW,6.9,-,N/A,,Clear,230,2013-04-26 13:52:00
9:13 AM,53.6,39.2,58,29.96,10.0,WSW,8.1,-,N/A,,Clear,240,2013-04-26 14:13:00
9:32 AM,53.6,41.0,62,29.97,10.0,West,6.9,-,N/A,,Clear,260,2013-04-26 14:32:00
9:53 AM,55.4,39.2,54,29.98,10.0,West,8.1,-,N/A,,Clear,270,2013-04-26 14:53:00
10:13 AM,55.4,39.2,54,29.99,10.0,WNW,8.1,-,N/A,,Clear,290,2013-04-26 15:13:00
10:32 AM,57.2,39.2,51,30.00,10.0,WNW,8.1,-,N/A,,Clear,290,2013-04-26 15:32:00
10:53 AM,57.2,41.0,55,30.01,10.0,NW,8.1,-,N/A,,Clear,320,2013-04-26 15:53:00
11:13 AM,59.0,41.0,51,30.02,10.0,Calm,Calm,-,N/A,,Clear,0,2013-04-26 16:13:00
11:32 AM,60.8,41.0,48,30.02,10.0,NNW,9.2,-,N/A,,Clear,340,2013-04-26 16:32:00
11:53 AM,62.6,39.2,42,30.03,10.0,Calm,Calm,-,N/A,,Clear,0,2013-04-26 16:53:00
12:13 PM,62.6,41.0,45,30.03,10.0,North,8.1,-,N/A,,Clear,360,2013-04-26 17:13:00
12:32 PM,64.4,41.0,42,30.04,10.0,NNW,5.8,-,N/A,,Clear,330,2013-04-26 17:32:00
12:53 PM,64.4,41.0,42,30.03,10.0,WNW,8.1,-,N/A,,Clear,300,2013-04-26 17:53:00
1:13 PM,66.2,41.0,40,30.03,10.0,WNW,6.9,-,N/A,,Clear,300,2013-04-26 18:13:00
1:32 PM,64.4,41.0,42,30.03,10.0,WNW,4.6,-,N/A,,Clear,290,2013-04-26 18:32:00
1:53 PM,66.2,41.0,40,30.04,10.0,WNW,4.6,-,N/A,,Clear,290,2013-04-26 18:53:00
2:13 PM,68.0,39.2,35,30.04,10.0,NW,6.9,-,N/A,,Clear,320,2013-04-26 19:13:00
2:32 PM,68.0,37.4,33,30.05,10.0,NNW,4.6,-,N/A,,Clear,340,2013-04-26 19:32:00
2:53 PM,69.8,35.6,28,30.05,10.0,WNW,8.1,-,N/A,,Clear,290,2013-04-26 19:53:00
3:13 PM,69.8,37.4,31,30.05,10.0,NNW,9.2,-,N/A,,Clear,330,2013-04-26 20:13:00
3:30 PM,69.8,35.6,28,30.05,10.0,North,4.6,-,N/A,,Scattered Clouds,10,2013-04-26 20:30:00
3:53 PM,69.8,37.4,31,30.05,10.0,West,3.5,-,N/A,,Scattered Clouds,270,2013-04-26 20:53:00
4:12 PM,69.8,37.4,31,30.05,10.0,NNW,5.8,-,N/A,,Mostly Cloudy,330,2013-04-26 21:12:00
4:33 PM,69.8,39.2,33,30.05,10.0,WNW,6.9,-,N/A,,Mostly Cloudy,290,2013-04-26 21:33:00
4:53 PM,69.8,42.8,38,30.06,10.0,NNW,11.5,18.4,N/A,,Scattered Clouds,330,2013-04-26 21:53:00
5:12 PM,69.8,39.2,33,30.07,10.0,NNW,12.7,17.3,N/A,,Clear,330,2013-04-26 22:12:00
5:33 PM,69.8,35.6,28,30.07,10.0,NW,11.5,-,N/A,,Clear,310,2013-04-26 22:33:00
5:53 PM,69.8,30.2,23,30.08,10.0,WNW,9.2,-,N/A,,Clear,300,2013-04-26 22:53:00
6:12 PM,68.0,30.2,24,30.08,10.0,NW,10.4,-,N/A,,Clear,310,2013-04-26 23:12:00
6:33 PM,66.2,26.6,23,30.09,10.0,NW,10.4,-,N/A,,Clear,320,2013-04-26 23:33:00
6:53 PM,66.2,30.2,26,30.09,10.0,NNW,9.2,-,N/A,,Clear,340,2013-04-26 23:53:00
7:12 PM,64.4,30.2,28,30.10,10.0,NW,9.2,-,N/A,,Clear,320,2013-04-27 00:12:00
7:33 PM,64.4,33.8,32,30.10,10.0,NNW,6.9,-,N/A,,Clear,330,2013-04-27 00:33:00
7:53 PM,62.6,33.8,34,30.11,10.0,NW,5.8,-,N/A,,Clear,310,2013-04-27 00:53:00
8:13 PM,62.6,33.8,34,30.11,10.0,NW,5.8,-,N/A,,Clear,310,2013-04-27 01:13:00
8:33 PM,60.8,33.8,36,30.12,10.0,NW,4.6,-,N/A,,Clear,310,2013-04-27 01:33:00
8:52 PM,57.2,35.6,44,30.12,10.0,NW,3.5,-,N/A,,Clear,320,2013-04-27 01:52:00
9:13 PM,57.2,35.6,44,30.13,10.0,NW,4.6,-,N/A,,Clear,320,2013-04-27 02:13:00
9:33 PM,53.6,35.6,51,30.14,10.0,NW,3.5,-,N/A,,Clear,310,2013-04-27 02:33:00
9:52 PM,51.8,35.6,54,30.14,10.0,Calm,Calm,-,N/A,,Clear,0,2013-04-27 02:52:00
10:13 PM,51.8,35.6,54,30.15,10.0,Calm,Calm,-,N/A,,Clear,0,2013-04-27 03:13:00
10:33 PM,48.2,33.8,58,30.15,10.0,Calm,Calm,-,N/A,,Clear,0,2013-04-27 03:33:00
10:52 PM,48.2,35.6,62,30.15,10.0,Calm,Calm,-,N/A,,Clear,0,2013-04-27 03:52:00
11:13 PM,46.4,35.6,66,30.15,10.0,Calm,Calm,-,N/A,,Clear,0,2013-04-27 04:13:00
11:33 PM,46.4,37.4,71,30.14,10.0,Calm,Calm,-,N/A,,Clear,0,2013-04-27 04:33:00
11:52 PM,44.6,35.6,71,30.14,10.0,Calm,Calm,-,N/A,,Clear,0,2013-04-27 04:52:00